Time,TemperatureF,DewpointF,PressureIn,WindDirection,WindDirectionDegrees,WindSpeedMPH,WindSpeedGustMPH,Humidity,HourlyPrecipIn,Conditions,Clouds,dailyrainin,SoftwareType,DateUTC
2013-02-23 00:02:00,39.5,39.5,29.96,SW,215,0.0,0.0,100,0.00,,,0.00,Wunderground v.1.15,2013-02-23 08:02:00,
2013-02-23 00:07:00,39.5,39.5,29.96,SSE,161,0.0,0.0,100,0.00,,,0.00,Wunderground v.1.15,2013-02-23 08:07:00,
2013-02-23 00:17:00,39.5,39.5,29.97,SSE,154,0.0,0.0,100,0.00,,,0.01,Wunderground v.1.15,2013-02-23 08:17:00,
2013-02-23 00:22:00,39.3,39.3,29.97,SE,141,0.0,0.0,100,0.00,,,0.01,Wunderground v.1.15,2013-02-23 08:22:00,
2013-02-23 00:32:00,39.3,39.3,29.97,SE,144,0.0,0.0,100,0.00,,,0.01,Wunderground v.1.15,2013-02-23 08:32:00,
2013-02-23 00:42:00,39.3,39.3,29.97,SSE,147,0.0,0.0,100,0.00,,,0.01,Wunderground v.1.15,2013-02-23 08:42:00,
2013-02-23 00:47:00,39.3,39.3,29.97,SE,127,0.0,0.0,100,0.00,,,0.01,Wunderground v.1.15,2013-02-23 08:47:00,
2013-02-23 00:57:00,39.2,39.2,29.97,SE,133,0.0,0.0,100,0.00,,,0.01,Wunderground v.1.15,2013-02-23 08:57:00,
2013-02-23 01:02:00,39.2,39.2,29.97,South,171,0.0,0.0,100,0.00,,,0.01,Wunderground v.1.15,2013-02-23 09:02:00,
2013-02-23 01:07:00,39.2,39.2,29.97,SSE,155,0.0,0.0,100,0.00,,,0.01,Wunderground v.1.15,2013-02-23 09:07:00,
2013-02-23 01:17:00,39.1,39.1,29.98,SSW,192,0.0,0.0,100,0.00,,,0.02,Wunderground v.1.15,2013-02-23 09:17:00,
2013-02-23 01:22:00,38.9,38.9,29.98,SE,145,0.0,0.0,100,0.08,,,0.03,Wunderground v.1.15,2013-02-23 09:22:00,
2013-02-23 01:32:00,38.8,38.8,29.99,SSE,162,0.0,0.0,100,0.10,,,0.05,Wunderground v.1.15,2013-02-23 09:32:00,
2013-02-23 01:42:00,38.9,38.9,29.99,SE,144,0.0,0.0,100,0.04,,,0.05,Wunderground v.1.15,2013-02-23 09:42:00,
2013-02-23 01:47:00,38.9,38.9,29.98,SE,134,0.0,0.0,100,0.04,,,0.06,Wunderground v.1.15,2013-02-23 09:47:00,
2013-02-23 01:57:00,38.9,38.9,29.98,ESE,107,0.0,0.0,100,0.04,,,0.06,Wunderground v.1.15,2013-02-23 09:57:00,
2013-02-23 02:07:00,38.9,38.9,29.99,SE,144,0.0,1.0,100,0.00,,,0.06,Wunderground v.1.15,2013-02-23 10:07:00,
2013-02-23 02:12:00,38.8,38.8,29.99,South,174,0.0,0.0,100,0.00,,,0.06,Wunderground v.1.15,2013-02-23 10:12:00,
2013-02-23 02:22:00,38.8,38.8,29.99,South,185,0.0,0.0,100,0.00,,,0.06,Wunderground v.1.15,2013-02-23 10:22:00,
2013-02-23 02:32:00,38.9,38.9,29.99,ESE,119,0.0,0.0,100,0.00,,,0.07,Wunderground v.1.15,2013-02-23 10:32:00,
2013-02-23 02:37:00,38.9,38.9,29.99,SE,145,0.0,0.0,100,0.00,,,0.07,Wunderground v.1.15,2013-02-23 10:37:00,
2013-02-23 02:47:00,38.9,38.9,29.99,SE,137,0.0,1.0,100,0.05,,,0.08,Wunderground v.1.15,2013-02-23 10:47:00,
2013-02-23 02:52:00,38.9,38.9,29.99,SSE,152,0.0,0.0,100,0.05,,,0.08,Wunderground v.1.15,2013-02-23 10:52:00,
2013-02-23 03:02:00,38.9,38.9,30.00,SE,138,0.0,0.0,100,0.04,,,0.09,Wunderground v.1.15,2013-02-23 11:02:00,
2013-02-23 03:07:00,38.9,38.9,30.00,SSE,157,0.0,0.0,100,0.04,,,0.09,Wunderground v.1.15,2013-02-23 11:07:00,
2013-02-23 03:17:00,39.1,39.1,30.00,SSE,155,0.0,0.0,100,0.00,,,0.09,Wunderground v.1.15,2013-02-23 11:17:00,
2013-02-23 03:22:00,39.1,39.1,30.00,SE,134,0.0,0.0,100,0.00,,,0.10,Wunderground v.1.15,2013-02-23 11:22:00,
2013-02-23 03:32:00,39.1,39.1,30.00,SE,136,0.0,0.0,100,0.00,,,0.10,Wunderground v.1.15,2013-02-23 11:32:00,
2013-02-23 03:37:00,39.1,39.1,30.00,ESE,117,0.0,0.0,100,0.00,,,0.10,Wunderground v.1.15,2013-02-23 11:37:00,
2013-02-23 03:47:00,39.1,39.1,30.00,SE,141,0.0,0.0,100,0.00,,,0.10,Wunderground v.1.15,2013-02-23 11:47:00,
2013-02-23 03:57:00,39.1,39.1,30.00,SE,143,0.0,0.0,100,0.00,,,0.11,Wunderground v.1.15,2013-02-23 11:57:00,
2013-02-23 04:02:00,39.1,39.1,30.01,SSE,160,0.0,2.0,100,0.00,,,0.11,Wunderground v.1.15,2013-02-23 12:02:00,
2013-02-23 04:07:00,39.1,39.1,30.01,East,96,0.0,2.0,100,0.00,,,0.11,Wunderground v.1.15,2013-02-23 12:07:00,
2013-02-23 04:17:00,39.1,39.1,30.02,SE,137,0.0,0.0,100,0.00,,,0.11,Wunderground v.1.15,2013-02-23 12:17:00,
2013-02-23 04:22:00,39.1,39.1,30.02,SE,145,0.0,0.0,100,0.00,,,0.11,Wunderground v.1.15,2013-02-23 12:22:00,
2013-02-23 04:32:00,39.2,39.2,30.02,SE,141,0.0,0.0,100,0.00,,,0.11,Wunderground v.1.15,2013-02-23 12:32:00,
2013-02-23 04:37:00,39.2,39.2,30.02,SSW,192,0.0,0.0,100,0.00,,,0.11,Wunderground v.1.15,2013-02-23 12:37:00,
2013-02-23 04:47:00,39.2,39.2,30.03,ESE,123,0.0,0.0,100,0.00,,,0.11,Wunderground v.1.15,2013-02-23 12:47:00,
2013-02-23 04:52:00,39.3,39.3,30.03,South,169,0.0,0.0,100,0.00,,,0.12,Wunderground v.1.15,2013-02-23 12:52:00,
2013-02-23 05:02:00,39.1,39.1,30.04,SE,144,0.0,0.0,100,0.00,,,0.12,Wunderground v.1.15,2013-02-23 13:02:00,
2013-02-23 05:07:00,38.9,38.9,30.04,SSE,160,0.0,0.0,100,0.00,,,0.12,Wunderground v.1.15,2013-02-23 13:07:00,
2013-02-23 05:12:00,38.9,38.9,30.04,SSE,155,0.0,0.0,100,0.00,,,0.12,Wunderground v.1.15,2013-02-23 13:12:00,
2013-02-23 05:22:00,39.2,39.2,30.04,NNW,342,0.0,0.0,100,0.00,,,0.12,Wunderground v.1.15,2013-02-23 13:22:00,
2013-02-23 05:32:00,39.2,39.2,30.05,SE,126,0.0,5.0,100,0.00,,,0.12,Wunderground v.1.15,2013-02-23 13:32:00,
2013-02-23 05:37:00,39.2,39.2,30.05,ESE,104,0.0,5.0,100,0.00,,,0.12,Wunderground v.1.15,2013-02-23 13:37:00,
2013-02-23 05:47:00,39.1,39.1,30.06,SE,136,1.0,1.0,100,0.00,,,0.12,Wunderground v.1.15,2013-02-23 13:47:00,
2013-02-23 05:57:00,39.1,39.1,30.06,SSW,208,0.0,0.0,100,0.00,,,0.12,Wunderground v.1.15,2013-02-23 13:57:00,
2013-02-23 06:02:00,39.1,39.1,30.06,ESE,120,1.0,6.0,100,0.00,,,0.12,Wunderground v.1.15,2013-02-23 14:02:00,
2013-02-23 06:07:00,39.1,39.1,30.06,NNE,32,1.0,6.0,100,0.00,,,0.12,Wunderground v.1.15,2013-02-23 14:07:00,
2013-02-23 06:17:00,39.2,39.2,30.07,SE,131,0.0,0.0,100,0.00,,,0.12,Wunderground v.1.15,2013-02-23 14:17:00,
2013-02-23 06:27:00,39.3,39.3,30.07,SSE,151,0.0,0.0,100,0.00,,,0.12,Wunderground v.1.15,2013-02-23 14:27:00,
2013-02-23 06:37:00,39.3,39.3,30.08,ENE,59,0.0,0.0,100,0.00,,,0.12,Wunderground v.1.15,2013-02-23 14:37:00,
2013-02-23 06:42:00,39.3,39.3,30.08,ENE,59,0.0,0.0,100,0.00,,,0.13,Wunderground v.1.15,2013-02-23 14:42:00,
2013-02-23 06:52:00,39.3,39.3,30.09,ENE,66,0.0,0.0,100,0.19,,,0.18,Wunderground v.1.15,2013-02-23 14:52:00,
2013-02-23 07:02:00,39.3,39.3,30.10,ENE,66,0.0,7.0,100,0.05,,,0.18,Wunderground v.1.15,2013-02-23 15:02:00,
2013-02-23 07:07:00,39.3,39.3,30.10,ENE,66,0.0,7.0,100,0.04,,,0.18,Wunderground v.1.15,2013-02-23 15:07:00,
2013-02-23 07:17:00,39.3,39.3,30.10,ENE,66,0.0,0.0,100,0.00,,,0.18,Wunderground v.1.15,2013-02-23 15:17:00,
2013-02-23 07:22:00,39.5,39.5,30.10,ENE,66,0.0,0.0,100,0.00,,,0.18,Wunderground v.1.15,2013-02-23 15:22:00,
2013-02-23 07:32:00,39.5,39.5,30.11,East,100,0.0,0.0,100,0.00,,,0.18,Wunderground v.1.15,2013-02-23 15:32:00,
2013-02-23 07:42:00,39.6,39.6,30.11,East,100,0.0,0.0,100,0.00,,,0.18,Wunderground v.1.15,2013-02-23 15:42:00,
2013-02-23 07:47:00,39.5,39.5,30.12,SSE,168,0.0,0.0,100,0.00,,,0.18,Wunderground v.1.15,2013-02-23 15:47:00,
2013-02-23 07:57:00,39.6,39.6,30.12,SE,143,0.0,0.0,100,0.00,,,0.18,Wunderground v.1.15,2013-02-23 15:57:00,
2013-02-23 08:07:00,39.6,39.6,30.13,SSE,147,0.0,0.0,100,0.09,,,0.19,Wunderground v.1.15,2013-02-23 16:07:00,
2013-02-23 08:12:00,39.8,39.8,30.13,SE,134,1.0,1.0,100,0.09,,,0.19,Wunderground v.1.15,2013-02-23 16:12:00,
2013-02-23 08:22:00,39.8,39.8,30.14,SSE,151,0.0,0.0,100,0.04,,,0.19,Wunderground v.1.15,2013-02-23 16:22:00,
2013-02-23 08:27:00,39.9,39.9,30.14,SSE,151,0.0,0.0,100,0.00,,,0.19,Wunderground v.1.15,2013-02-23 16:27:00,
2013-02-23 08:37:00,39.9,39.9,30.14,SSE,151,0.0,0.0,100,0.00,,,0.19,Wunderground v.1.15,2013-02-23 16:37:00,
2013-02-23 08:47:00,40.2,40.2,30.15,SSE,151,0.0,0.0,100,0.00,,,0.20,Wunderground v.1.15,2013-02-23 16:47:00,
2013-02-23 08:57:00,40.3,40.3,30.15,SSE,165,0.0,0.0,100,0.00,,,0.20,Wunderground v.1.15,2013-02-23 16:57:00,
2013-02-23 09:02:00,40.5,40.5,30.17,SSE,165,0.0,0.0,100,0.00,,,0.20,Wunderground v.1.15,2013-02-23 17:02:00,
2013-02-23 09:07:00,40.6,40.6,30.17,SSE,165,0.0,0.0,100,0.00,,,0.20,Wunderground v.1.15,2013-02-23 17:07:00,
2013-02-23 09:17:00,40.8,40.8,30.17,SSE,165,0.0,0.0,100,0.00,,,0.20,Wunderground v.1.15,2013-02-23 17:17:00,
2013-02-23 09:27:00,40.6,40.6,30.17,SSE,165,0.0,0.0,100,0.00,,,0.20,Wunderground v.1.15,2013-02-23 17:27:00,
2013-02-23 09:37:00,40.6,40.6,30.18,SSE,165,0.0,0.0,100,0.00,,,0.21,Wunderground v.1.15,2013-02-23 17:37:00,
2013-02-23 09:42:00,40.8,40.8,30.18,SSE,165,0.0,0.0,100,0.00,,,0.21,Wunderground v.1.15,2013-02-23 17:42:00,
2013-02-23 09:52:00,40.8,40.8,30.19,SSE,165,0.0,0.0,100,0.00,,,0.21,Wunderground v.1.15,2013-02-23 17:52:00,
2013-02-23 10:02:00,41.2,41.2,30.19,WSW,241,0.0,0.0,100,0.00,,,0.21,Wunderground v.1.15,2013-02-23 18:02:00,
2013-02-23 10:07:00,41.5,41.5,30.19,WSW,241,0.0,0.0,100,0.00,,,0.21,Wunderground v.1.15,2013-02-23 18:07:00,
2013-02-23 10:17:00,42.8,42.8,30.20,WSW,241,0.0,0.0,100,0.00,,,0.21,Wunderground v.1.15,2013-02-23 18:17:00,
2013-02-23 10:22:00,43.6,43.6,30.20,WSW,241,0.0,0.0,100,0.00,,,0.21,Wunderground v.1.15,2013-02-23 18:22:00,
2013-02-23 10:32:00,44.1,44.1,30.20,South,169,0.0,0.0,100,0.00,,,0.21,Wunderground v.1.15,2013-02-23 18:32:00,
2013-02-23 10:42:00,43.8,43.8,30.20,South,171,0.0,0.0,100,0.00,,,0.21,Wunderground v.1.15,2013-02-23 18:42:00,
2013-02-23 10:47:00,43.9,43.9,30.20,South,171,0.0,0.0,100,0.00,,,0.21,Wunderground v.1.15,2013-02-23 18:47:00,
2013-02-23 10:57:00,44.8,44.8,30.20,SSW,203,1.0,2.0,100,0.00,,,0.21,Wunderground v.1.15,2013-02-23 18:57:00,
2013-02-23 11:07:00,45.1,45.1,30.20,SW,233,2.0,2.0,100,0.00,,,0.21,Wunderground v.1.15,2013-02-23 19:07:00,
2013-02-23 11:17:00,45.4,44.1,30.21,SSW,198,1.0,1.0,95,0.00,,,0.21,Wunderground v.1.15,2013-02-23 19:17:00,
2013-02-23 11:27:00,46.1,45.0,30.21,NNW,329,0.0,0.0,96,0.00,,,0.21,Wunderground v.1.15,2013-02-23 19:27:00,
2013-02-23 11:32:00,45.8,45.0,30.21,NW,304,1.0,5.0,97,0.00,,,0.21,Wunderground v.1.15,2013-02-23 19:32:00,
2013-02-23 11:42:00,44.8,44.8,30.21,WNW,294,4.0,10.0,100,0.00,,,0.21,Wunderground v.1.15,2013-02-23 19:42:00,
2013-02-23 11:52:00,41.6,41.6,30.22,WNW,294,8.0,8.0,100,0.00,,,0.22,Wunderground v.1.15,2013-02-23 19:52:00,
2013-02-23 11:57:00,41.6,41.6,30.22,NW,305,6.0,8.0,100,0.00,,,0.22,Wunderground v.1.15,2013-02-23 19:57:00,
2013-02-23 12:07:00,42.3,42.3,30.22,WSW,257,2.0,3.0,100,0.00,,,0.22,Wunderground v.1.15,2013-02-23 20:07:00,
2013-02-23 12:17:00,42.3,42.3,30.22,West,270,3.0,3.0,100,0.00,,,0.22,Wunderground v.1.15,2013-02-23 20:17:00,
2013-02-23 12:27:00,42.9,42.9,30.22,NW,305,2.0,3.0,100,0.00,,,0.22,Wunderground v.1.15,2013-02-23 20:27:00,
2013-02-23 12:32:00,43.5,43.5,30.22,NW,313,1.0,1.0,100,0.00,,,0.22,Wunderground v.1.15,2013-02-23 20:32:00,
2013-02-23 12:42:00,44.1,44.1,30.22,WNW,294,0.0,0.0,100,0.00,,,0.22,Wunderground v.1.15,2013-02-23 20:42:00,
2013-02-23 12:52:00,44.8,44.8,30.22,WNW,294,0.0,0.0,100,0.00,,,0.22,Wunderground v.1.15,2013-02-23 20:52:00,
2013-02-23 12:57:00,45.2,45.2,30.22,NW,313,0.0,0.0,100,0.00,,,0.22,Wunderground v.1.15,2013-02-23 20:57:00,
2013-02-23 13:07:00,46.1,45.3,30.21,NW,304,0.0,7.0,97,0.00,,,0.22,Wunderground v.1.15,2013-02-23 21:07:00,
2013-02-23 13:17:00,46.7,44.8,30.21,WNW,289,1.0,2.0,93,0.00,,,0.22,Wunderground v.1.15,2013-02-23 21:17:00,
2013-02-23 13:22:00,46.5,45.1,30.21,West,260,2.0,2.0,95,0.00,,,0.22,Wunderground v.1.15,2013-02-23 21:22:00,
2013-02-23 13:32:00,46.8,45.2,30.21,WNW,285,2.0,8.0,94,0.00,,,0.22,Wunderground v.1.15,2013-02-23 21:32:00,
2013-02-23 13:42:00,47.3,41.1,30.21,NW,320,4.0,13.0,79,0.00,,,0.22,Wunderground v.1.15,2013-02-23 21:42:00,
2013-02-23 13:47:00,45.2,45.2,30.22,NNW,336,5.0,13.0,100,0.00,,,0.23,Wunderground v.1.15,2013-02-23 21:47:00,
2013-02-23 13:57:00,43.8,43.8,30.22,NNW,336,8.0,10.0,100,0.00,,,0.23,Wunderground v.1.15,2013-02-23 21:57:00,
2013-02-23 14:07:00,44.2,44.2,30.22,WSW,247,3.0,6.0,100,0.00,,,0.24,Wunderground v.1.15,2013-02-23 22:07:00,
2013-02-23 14:17:00,44.8,37.4,30.22,WNW,299,3.0,10.0,75,0.00,,,0.24,Wunderground v.1.15,2013-02-23 22:17:00,
2013-02-23 14:27:00,45.2,39.7,30.22,NNW,328,1.0,3.0,81,0.00,,,0.24,Wunderground v.1.15,2013-02-23 22:27:00,
2013-02-23 14:37:00,46.2,40.4,30.23,WNW,294,0.0,2.0,80,0.00,,,0.24,Wunderground v.1.15,2013-02-23 22:37:00,
2013-02-23 14:47:00,47.1,39.6,30.23,NNW,333,2.0,3.0,75,0.00,,,0.24,Wunderground v.1.15,2013-02-23 22:47:00,
2013-02-23 14:52:00,47.3,40.1,30.23,NNW,330,2.0,2.0,76,0.00,,,0.24,Wunderground v.1.15,2013-02-23 22:52:00,
2013-02-23 15:02:00,47.4,38.1,30.24,WNW,284,3.0,3.0,70,0.00,,,0.24,Wunderground v.1.15,2013-02-23 23:02:00,
2013-02-23 15:07:00,47.6,36.4,30.24,WNW,298,6.0,6.0,65,0.00,,,0.24,Wunderground v.1.15,2013-02-23 23:07:00,
2013-02-23 15:17:00,47.4,37.7,30.25,NW,304,4.0,10.0,69,0.00,,,0.24,Wunderground v.1.15,2013-02-23 23:17:00,
2013-02-23 15:27:00,46.1,35.7,30.25,NW,313,6.0,6.0,67,0.00,,,0.24,Wunderground v.1.15,2013-02-23 23:27:00,
2013-02-23 15:37:00,46.7,35.2,30.25,NNW,332,1.0,3.0,64,0.00,,,0.24,Wunderground v.1.15,2013-02-23 23:37:00,
2013-02-23 15:47:00,47.4,36.2,30.25,West,277,1.0,1.0,65,0.00,,,0.24,Wunderground v.1.15,2013-02-23 23:47:00,
2013-02-23 15:52:00,47.6,36.0,30.25,NW,326,1.0,3.0,64,0.00,,,0.24,Wunderground v.1.15,2013-02-23 23:52:00,
2013-02-23 16:02:00,47.6,36.4,30.25,NW,318,1.0,1.0,65,0.00,,,0.24,Wunderground v.1.15,2013-02-24 00:02:00,
2013-02-23 16:07:00,47.4,36.2,30.25,NW,311,0.0,3.0,65,0.00,,,0.24,Wunderground v.1.15,2013-02-24 00:07:00,
2013-02-23 16:12:00,47.3,36.5,30.25,WNW,299,1.0,1.0,66,0.00,,,0.24,Wunderground v.1.15,2013-02-24 00:12:00,
2013-02-23 16:22:00,47.4,36.6,30.25,WNW,299,0.0,0.0,66,0.00,,,0.24,Wunderground v.1.15,2013-02-24 00:22:00,
2013-02-23 16:32:00,47.0,35.4,30.26,WNW,298,0.0,0.0,64,0.00,,,0.24,Wunderground v.1.15,2013-02-24 00:32:00,
2013-02-23 16:37:00,46.8,36.0,30.26,NW,308,0.0,0.0,66,0.00,,,0.24,Wunderground v.1.15,2013-02-24 00:37:00,
2013-02-23 16:47:00,46.7,35.6,30.26,WNW,292,0.0,0.0,65,0.00,,,0.24,Wunderground v.1.15,2013-02-24 00:47:00,
2013-02-23 16:52:00,46.5,35.4,30.26,WNW,291,1.0,1.0,65,0.00,,,0.24,Wunderground v.1.15,2013-02-24 00:52:00,
2013-02-23 17:02:00,46.5,35.0,30.26,WNW,298,0.0,0.0,64,0.00,,,0.24,Wunderground v.1.15,2013-02-24 01:02:00,
2013-02-23 17:07:00,46.4,34.9,30.26,WNW,299,0.0,0.0,64,0.00,,,0.24,Wunderground v.1.15,2013-02-24 01:07:00,
2013-02-23 17:12:00,46.4,34.9,30.26,WNW,299,0.0,0.0,64,0.00,,,0.24,Wunderground v.1.15,2013-02-24 01:12:00,
2013-02-23 17:22:00,46.2,33.5,30.27,NW,309,0.0,0.0,61,0.00,,,0.24,Wunderground v.1.15,2013-02-24 01:22:00,
2013-02-23 17:27:00,46.1,33.4,30.27,WNW,292,1.0,1.0,61,0.00,,,0.24,Wunderground v.1.15,2013-02-24 01:27:00,
2013-02-23 17:37:00,46.0,34.1,30.28,WNW,298,0.0,2.0,63,0.00,,,0.24,Wunderground v.1.15,2013-02-24 01:37:00,
2013-02-23 17:42:00,45.8,34.3,30.28,WNW,298,0.0,0.0,64,0.00,,,0.24,Wunderground v.1.15,2013-02-24 01:42:00,
2013-02-23 17:52:00,45.7,33.8,30.28,WNW,298,0.0,0.0,63,0.00,,,0.24,Wunderground v.1.15,2013-02-24 01:52:00,
2013-02-23 18:02:00,45.2,33.7,30.29,WNW,298,0.0,5.0,64,0.00,,,0.24,Wunderground v.1.15,2013-02-24 02:02:00,
2013-02-23 18:07:00,44.9,33.8,30.29,WNW,298,0.0,5.0,65,0.00,,,0.24,Wunderground v.1.15,2013-02-24 02:07:00,
2013-02-23 18:12:00,44.9,33.8,30.29,WNW,298,0.0,0.0,65,0.00,,,0.24,Wunderground v.1.15,2013-02-24 02:12:00,
2013-02-23 18:22:00,44.8,33.4,30.30,WNW,298,0.0,0.0,64,0.00,,,0.24,Wunderground v.1.15,2013-02-24 02:22:00,
2013-02-23 18:27:00,44.6,34.3,30.30,WNW,298,0.0,0.0,67,0.00,,,0.24,Wunderground v.1.15,2013-02-24 02:27:00,
2013-02-23 18:37:00,44.5,35.7,30.30,WNW,298,0.0,0.0,71,0.00,,,0.24,Wunderground v.1.15,2013-02-24 02:37:00,
2013-02-23 18:42:00,44.1,36.3,30.30,WNW,298,0.0,0.0,74,0.00,,,0.24,Wunderground v.1.15,2013-02-24 02:42:00,
2013-02-23 18:52:00,43.8,35.0,30.31,West,270,2.0,2.0,71,0.00,,,0.24,Wunderground v.1.15,2013-02-24 02:52:00,
2013-02-23 19:02:00,43.3,36.2,30.31,SW,217,1.0,5.0,76,0.00,,,0.24,Wunderground v.1.15,2013-02-24 03:02:00,
2013-02-23 19:07:00,43.3,36.6,30.31,SW,219,1.0,5.0,77,0.00,,,0.24,Wunderground v.1.15,2013-02-24 03:07:00,
2013-02-23 19:12:00,43.1,37.0,30.31,SW,219,0.0,0.0,79,0.00,,,0.24,Wunderground v.1.15,2013-02-24 03:12:00,
2013-02-23 19:22:00,42.9,36.8,30.32,SW,222,0.0,0.0,79,0.00,,,0.24,Wunderground v.1.15,2013-02-24 03:22:00,
2013-02-23 19:27:00,42.8,36.7,30.32,SSW,212,0.0,0.0,79,0.00,,,0.24,Wunderground v.1.15,2013-02-24 03:27:00,
2013-02-23 19:37:00,42.8,37.1,30.32,SSW,210,0.0,0.0,80,0.00,,,0.24,Wunderground v.1.15,2013-02-24 03:37:00,
2013-02-23 19:42:00,42.6,37.2,30.32,SSW,210,0.0,0.0,81,0.00,,,0.24,Wunderground v.1.15,2013-02-24 03:42:00,
2013-02-23 19:52:00,42.3,37.2,30.32,SSW,210,0.0,0.0,82,0.00,,,0.24,Wunderground v.1.15,2013-02-24 03:52:00,
2013-02-23 20:02:00,42.3,39.3,30.33,SSW,210,0.0,4.0,89,0.00,,,0.24,Wunderground v.1.15,2013-02-24 04:02:00,
2013-02-23 20:07:00,42.2,40.0,30.33,SSW,210,0.0,4.0,92,0.00,,,0.24,Wunderground v.1.15,2013-02-24 04:07:00,
2013-02-23 20:12:00,42.2,40.9,30.33,SSW,210,0.0,0.0,95,0.00,,,0.24,Wunderground v.1.15,2013-02-24 04:12:00,
2013-02-23 20:22:00,42.1,42.1,30.34,SSW,210,0.0,0.0,100,0.00,,,0.24,Wunderground v.1.15,2013-02-24 04:22:00,
2013-02-23 20:32:00,41.8,41.8,30.34,SSW,210,0.0,0.0,100,0.00,,,0.24,Wunderground v.1.15,2013-02-24 04:32:00,
2013-02-23 20:42:00,41.5,41.5,30.34,SSW,210,0.0,0.0,100,0.00,,,0.24,Wunderground v.1.15,2013-02-24 04:42:00,
2013-02-23 20:52:00,41.2,41.2,30.34,SSW,210,0.0,0.0,100,0.00,,,0.24,Wunderground v.1.15,2013-02-24 04:52:00,
2013-02-23 20:57:00,41.1,41.1,30.34,SSW,210,0.0,0.0,100,0.00,,,0.24,Wunderground v.1.15,2013-02-24 04:57:00,
2013-02-23 21:02:00,40.9,40.9,30.34,SSW,210,0.0,0.0,100,0.00,,,0.24,Wunderground v.1.15,2013-02-24 05:02:00,
2013-02-23 21:07:00,40.8,40.8,30.34,SSW,210,0.0,0.0,100,0.00,,,0.24,Wunderground v.1.15,2013-02-24 05:07:00,
2013-02-23 21:12:00,40.6,40.6,30.34,SSW,209,0.0,0.0,100,0.00,,,0.24,Wunderground v.1.15,2013-02-24 05:12:00,
2013-02-23 21:17:00,40.5,40.5,30.34,SSW,209,0.0,0.0,100,0.00,,,0.24,Wunderground v.1.15,2013-02-24 05:17:00,
2013-02-23 21:22:00,40.3,40.3,30.34,SSW,209,0.0,0.0,100,0.00,,,0.24,Wunderground v.1.15,2013-02-24 05:22:00,
2013-02-23 21:32:00,40.2,40.2,30.34,SSW,209,0.0,0.0,100,0.00,,,0.24,Wunderground v.1.15,2013-02-24 05:32:00,
2013-02-23 21:42:00,39.9,39.9,30.34,SSW,208,0.0,0.0,100,0.00,,,0.24,Wunderground v.1.15,2013-02-24 05:42:00,
2013-02-23 21:52:00,39.6,39.6,30.34,SSW,208,0.0,0.0,100,0.00,,,0.24,Wunderground v.1.15,2013-02-24 05:52:00,
2013-02-23 21:57:00,39.6,39.6,30.34,SSW,208,0.0,0.0,100,0.00,,,0.24,Wunderground v.1.15,2013-02-24 05:57:00,
2013-02-23 22:07:00,39.5,39.5,30.34,ESE,113,0.0,0.0,100,0.00,,,0.24,Wunderground v.1.15,2013-02-24 06:07:00,
2013-02-23 22:17:00,39.3,39.3,30.35,ESE,113,0.0,0.0,100,0.00,,,0.24,Wunderground v.1.15,2013-02-24 06:17:00,
2013-02-23 22:27:00,39.1,39.1,30.35,ESE,113,0.0,0.0,100,0.00,,,0.24,Wunderground v.1.15,2013-02-24 06:27:00,
2013-02-23 22:37:00,39.1,39.1,30.35,ESE,113,0.0,0.0,100,0.00,,,0.24,Wunderground v.1.15,2013-02-24 06:37:00,
2013-02-23 22:47:00,39.1,39.1,30.35,ESE,112,0.0,0.0,100,0.00,,,0.24,Wunderground v.1.15,2013-02-24 06:47:00,
2013-02-23 22:52:00,39.2,39.2,30.35,ESE,114,0.0,0.0,100,0.00,,,0.24,Wunderground v.1.15,2013-02-24 06:52:00,
2013-02-23 23:02:00,39.2,39.2,30.35,ESE,114,0.0,0.0,100,0.00,,,0.24,Wunderground v.1.15,2013-02-24 07:02:00,
2013-02-23 23:07:00,39.2,39.2,30.35,ESE,109,0.0,0.0,100,0.00,,,0.24,Wunderground v.1.15,2013-02-24 07:07:00,
2013-02-23 23:17:00,39.3,39.3,30.36,ESE,109,0.0,0.0,100,0.00,,,0.24,Wunderground v.1.15,2013-02-24 07:17:00,
2013-02-23 23:27:00,39.3,39.3,30.36,ESE,109,0.0,0.0,100,0.00,,,0.24,Wunderground v.1.15,2013-02-24 07:27:00,
2013-02-23 23:32:00,39.3,39.3,30.35,ESE,109,0.0,0.0,100,0.00,,,0.24,Wunderground v.1.15,2013-02-24 07:32:00,
2013-02-23 23:42:00,39.3,39.3,30.35,SE,136,0.0,0.0,100,0.00,,,0.24,Wunderground v.1.15,2013-02-24 07:42:00,
2013-02-23 23:52:00,39.3,39.3,30.35,SE,141,0.0,0.0,100,0.00,,,0.24,Wunderground v.1.15,2013-02-24 07:52:00,